Sitka, AK

7:38 PM AKDT on August 31, 2016 (GMT -0800)
Sitka Rocky Gutierrez

Weather History for PASI - October, 2014

Change the Weather History Date:

Sunday, October 12, 2014

  Actual Average Record
Temperature  
Mean Temperature 50 °F -  
Max Temperature 53 °F 50 °F 60 °F (1969)
Min Temperature 46 °F 43 °F 32 °F (1997)
Degree Days  
Heating Degree Days 16    
Moisture  
Dew Point 47 °F    
Average Humidity 94    
Maximum Humidity 100    
Minimum Humidity 69    
Precipitation  
Precipitation 0.45 in - - ()
Sea Level Pressure  
Sea Level Pressure 29.59 in    
Wind  
Wind Speed 8 mph (SE)    
Max Wind Speed 18 mph    
Max Gust Speed 21 mph    
Visibility 8 miles    
Events Rain    
Averages and records for this station are not official NWS values.
T = Trace of Precipitation, MM = Missing Value Source: NWS Daily Summary

Daily Weather History Graph

Daily Weather History Graph

Search for Another Location

Airport or City:

Trip Planner

Search our weather history database for the weather conditions in past years. The results will help you decide how hot, cold, wet, or windy it might be!

Date:

Astronomy

Oct. 12, 2014 Rise Set
Actual Time 7:28 AM AKDT 6:06 PM AKDT
Civil Twilight 6:50 AM AKDT 6:44 PM AKDT
Nautical Twilight 6:05 AM AKDT 7:28 PM AKDT
Astronomical Twilight 5:21 AM AKDT 8:13 PM AKDT
Moon 8:49 PM AKDT (10/12) 12:38 PM AKDT (10/12)
Length of Visible Light 11h 54m
Length of Day
10h 37m
Waning Gibbous, 78% of the Moon is Illuminated
Oct 12
Waning Gibbous
Oct 15
Last Quarter
Oct 23
New
Oct 30
First Quarter
Nov 6
Full

Hourly Weather History & Observations

Time (AKDT) Temp. Windchill Dew Point Humidity Pressure Visibility Wind Dir Wind Speed Gust Speed Precip Events Conditions
12:18 AM 50.0 °F - 48.9 °F 96% 29.78 in 9.0 mi SE 8.1 mph - N/A   Overcast
12:27 AM 50.0 °F - 48.9 °F 96% 29.78 in 9.0 mi ESE 6.9 mph - N/A   Overcast
12:53 AM 48.9 °F - 48.0 °F 97% 29.79 in 9.0 mi SE 5.8 mph - N/A   Overcast
1:38 AM 48.9 °F - 48.0 °F 97% 29.79 in 9.0 mi ESE 6.9 mph - 0.00 in Rain Light Rain
1:53 AM 48.9 °F - 48.9 °F 100% 29.79 in 9.0 mi ESE 8.1 mph - 0.01 in Rain Light Rain
2:00 AM 48.9 °F - 48.0 °F 97% 29.79 in 10.0 mi ESE 8.1 mph - 0.00 in Rain Light Rain
2:24 AM 48.9 °F - 48.9 °F 100% 29.79 in 10.0 mi ESE 6.9 mph - 0.00 in Rain Light Rain
2:53 AM 48.0 °F - 48.0 °F 100% 29.78 in 10.0 mi SE 5.8 mph - 0.00 in   Mostly Cloudy
3:53 AM 48.0 °F - 48.0 °F 100% 29.76 in 10.0 mi East 5.8 mph - N/A   Mostly Cloudy
4:37 AM 48.0 °F - 46.9 °F 96% 29.74 in 10.0 mi ESE 4.6 mph - N/A   Mostly Cloudy
4:53 AM 48.0 °F - 48.0 °F 100% 29.74 in 10.0 mi ESE 6.9 mph - N/A   Overcast
5:53 AM 48.0 °F - 46.9 °F 96% 29.71 in 10.0 mi East 9.2 mph - 0.00 in   Mostly Cloudy
6:53 AM 48.9 °F - 46.9 °F 93% 29.69 in 10.0 mi ESE 9.2 mph - N/A   Overcast
7:53 AM 48.0 °F - 46.9 °F 96% 29.66 in 10.0 mi East 6.9 mph - N/A   Scattered Clouds
8:53 AM 48.9 °F - 46.0 °F 90% 29.63 in 10.0 mi ESE 10.4 mph - N/A   Overcast
9:53 AM 51.1 °F - 45.0 °F 80% 29.60 in 10.0 mi SE 10.4 mph - N/A   Overcast
10:53 AM 51.1 °F - 46.0 °F 83% 29.57 in 10.0 mi ESE 6.9 mph - N/A   Overcast
11:53 AM 50.0 °F - 48.0 °F 93% 29.53 in 10.0 mi Calm Calm - N/A   Overcast
12:53 PM 52.0 °F - 45.0 °F 77% 29.49 in 10.0 mi SE 9.2 mph - 0.00 in   Overcast
1:53 PM 53.1 °F - 43.0 °F 69% 29.44 in 10.0 mi ESE 12.7 mph - 0.00 in   Overcast
2:53 PM 51.1 °F - 44.1 °F 77% 29.43 in 9.0 mi ESE 13.8 mph - 0.01 in Rain Light Rain
3:53 PM 52.0 °F - 42.1 °F 69% 29.42 in 10.0 mi ESE 18.4 mph - 0.00 in Rain Light Rain
4:53 PM 52.0 °F - 43.0 °F 71% 29.43 in 10.0 mi ESE 17.3 mph - 0.00 in Rain Light Rain
5:53 PM 52.0 °F - 44.1 °F 74% 29.43 in 10.0 mi ESE 12.7 mph - 0.00 in   Overcast
6:35 PM 50.0 °F - 46.9 °F 89% 29.46 in 2.5 mi South 10.4 mph 20.7 mph 0.06 in Rain Rain
6:42 PM 50.0 °F - 48.9 °F 96% 29.46 in 3.0 mi South 11.5 mph - 0.07 in Rain Light Rain
6:48 PM 50.0 °F - 50.0 °F 100% 29.46 in 3.0 mi South 10.4 mph - 0.09 in Rain Rain
6:53 PM 50.0 °F - 50.0 °F 100% 29.47 in 3.0 mi South 11.5 mph - 0.10 in Rain Light Rain
7:53 PM 48.9 °F - 48.9 °F 100% 29.50 in 5.0 mi SSW 13.8 mph - 0.14 in Rain Light Rain
8:04 PM 48.0 °F - 48.0 °F 100% 29.51 in 6.0 mi SSW 10.4 mph - 0.00 in Rain Light Rain
8:13 PM 48.0 °F - 48.0 °F 100% 29.51 in 3.0 mi South 8.1 mph - 0.01 in Rain Light Rain
8:20 PM 48.0 °F - 48.0 °F 100% 29.51 in 2.5 mi South 8.1 mph - 0.03 in Rain Light Rain
8:28 PM 48.0 °F - 48.0 °F 100% 29.52 in 2.5 mi SSW 11.5 mph 18.4 mph 0.04 in Rain Light Rain
8:37 PM 48.0 °F - 48.0 °F 100% 29.52 in 4.0 mi SW 12.7 mph - 0.05 in Rain Light Rain
8:46 PM 48.0 °F - 48.0 °F 100% 29.53 in 3.0 mi SW 12.7 mph - 0.07 in Rain Light Rain
8:53 PM 48.0 °F - 48.0 °F 100% 29.54 in 3.0 mi SW 10.4 mph - 0.08 in Rain Light Rain
9:10 PM 46.9 °F - 46.9 °F 100% 29.54 in 9.0 mi Variable 5.8 mph - 0.00 in   Overcast
9:36 PM 46.9 °F - 46.9 °F 100% 29.55 in 2.5 mi South 10.4 mph - 0.06 in Rain Heavy Rain
9:46 PM 46.9 °F - 46.9 °F 100% 29.56 in 3.0 mi South 11.5 mph - 0.09 in Rain Light Rain
9:53 PM 46.9 °F - 46.9 °F 100% 29.57 in 6.0 mi SSW 11.5 mph - 0.09 in Rain Light Rain
10:48 PM 46.4 °F 45.2 °F 46.4 °F 100% 29.58 in 10.0 mi East 3.5 mph - 0.01 in Rain Light Rain
10:53 PM 46.9 °F - 46.9 °F 100% 29.58 in 8.0 mi SSE 4.6 mph - 0.01 in Rain Light Rain
11:01 PM 46.9 °F - 46.0 °F 97% 29.58 in 5.0 mi SSE 4.6 mph - 0.01 in Rain Light Rain
11:14 PM 46.9 °F - 45.0 °F 93% 29.58 in 10.0 mi East 4.6 mph - 0.01 in   Overcast
11:53 PM 46.0 °F 43.9 °F 46.0 °F 100% 29.60 in 10.0 mi East 4.6 mph - 0.01 in   Overcast